Flag for Germany Weather past 2 weeks in Hoyerswerda, Saxony, Germany

Now
68 °F

Overcast.


Feels Like: 68 °F
Forecast: 59 / 75 °F
Wind: 2 mph from Southeast

Location: Cottbus

Current Time: Sep 19, 2014 at 1:59:47 PM

Latest Report: Sep 19, 2014 at 1:00 PM


Visibility: 13 mi

Pressure: 29.95 "Hg

Humidity: 67%

Dew point: 56 °F

Location of HoyerswerdaLocation

Historic Weather in Hoyerswerda — Graph

°F

Hoyerswerda temperature yesterday

Maximum temperature yesterday: 74 °F (at 2:00 PM)
Minimum temperature yesterday: 54 °F (at 7:00 AM)
Average temperature yesterday: 64 °F

Past Weeks' High & Low Weather Summary

 TemperatureHumidityPressure
High80 °F (Sep 6, 4:00 PM)100% (Sep 15, 3:00 AM)30.18 "Hg (Sep 15, 3:00 AM)
Low53 °F (Sep 11, 5:00 AM)42% (Sep 18, 2:00 PM)29.87 "Hg (Sep 6, 5:00 PM)
Average64 °F80%30.02 "Hg
* Reported Sep 4 1:00 PM — Sep 19 1:00 PM, Hoyerswerda, Weather by CustomWeather, © 2014

Note: Actual official high and low records may vary slightly from our data, if they occured in-between our weather recording intervals... More about our weather records

Advertising

Hoyerswerda weather history for previous 24 hours

 ConditionsComfort  
Time TempWeatherWind HumidityBarometerVisibility
1:00 PM
Sep 19
68 °FOvercast.2 mph67%29.95 "Hg12 mi
12:00 PM67 °FOvercast.3 mph64%29.96 "Hg14 mi
11:00 AM66 °FOvercast.2 mph67%29.96 "Hg14 mi
10:00 AM64 °FOvercast.2 mph71%29.96 "Hg11 mi
9:00 AM61 °FOvercast.2 mph77%29.96 "Hg10 mi
8:00 AM60 °FOvercast.1 mph80%29.96 "Hg9 mi
7:00 AM58 °FOvercast.1 mph84%29.95 "Hg8 mi
6:00 AM59 °FOvercast.2 mph83%29.95 "Hg9 mi
5:00 AM58 °FOvercast.1 mph86%29.96 "Hg7 mi
4:00 AM58 °FOvercast.1 mph82%29.95 "Hg9 mi
3:00 AM57 °FOvercast.1 mph86%29.96 "Hg9 mi
2:00 AM55 °FOvercast.1 mph91%29.97 "Hg7 mi
1:00 AM55 °FOvercast.1 mph90%29.97 "Hg7 mi
12:00 AM56 °FPassing clouds.1 mph87%29.97 "Hg9 mi
11:00 PM
Sep 18
59 °FClear.2 mph79%29.98 "Hg11 mi
10:00 PM62 °FClear.2 mph69%29.97 "Hg14 mi
9:00 PM64 °FClear.2 mph64%29.97 "Hg16 mi
8:00 PM65 °FPassing clouds.2 mph62%29.97 "Hg16 mi
7:00 PM70 °FPartly sunny.2 mph52%29.96 "Hg18 mi
6:00 PM72 °FOvercast.3 mph46%29.96 "Hg17 mi
5:00 PM73 °FOvercast.5 mph45%29.96 "Hg17 mi
4:00 PM73 °FPartly sunny.6 mph44%29.96 "Hg19 mi
3:00 PM74 °FPartly sunny.6 mph44%29.96 "Hg19 mi
2:00 PM74 °FPassing clouds.7 mph42%29.96 "Hg19 mi
1:00 PM73 °FPassing clouds.7 mph45%29.97 "Hg19 mi
Weather by CustomWeather, © 2014

See weather overviewHow to use our weather pages